When you browse on this site, cookies collect data to enhance your experience and personalize the content and advertising you see.
Visit our Privacy Policy to learn more. By continuing to use the site, you agree to this use of cookies and data.

Hourly Weather Middlesbrough

Today, 22 September, Tuesday

Time Temperature Precipitation Wind Pressure Humidity
00:00 +11°C° 0 mm 3 mps 758 mmHg 91%
01:00 +11°C° 0 mm 3 mps 757 mmHg 92%
02:00 +11°C° 0 mm 3 mps 757 mmHg 93%
03:00 +11°C° 0 mm 3 mps 756 mmHg 94%
04:00 +11°C° 0 mm 3 mps 756 mmHg 94%
05:00 +11°C° 0 mm 3 mps 755 mmHg 94%
06:00 +11°C° 0 mm 3 mps 755 mmHg 94%
07:00 +13°C° 0 mm 4 mps 754 mmHg 89%
08:00 +15°C° 0 mm 4 mps 754 mmHg 84%
09:00 +16°C° 0 mm 5 mps 753 mmHg 79%
10:00 +19°C° 0 mm 6 mps 753 mmHg 75%
11:00 +20°C° 0 mm 6 mps 752 mmHg 71%
12:00 +22°C° 0 mm 7 mps 752 mmHg 68%
13:00 +21°C° 0 mm 7 mps 751 mmHg 70%
14:00 +20°C° 0 mm 6 mps 751 mmHg 73%
15:00 +20°C° 0 mm 6 mps 750 mmHg 76%
16:00 +19°C° 0 mm 5 mps 749 mmHg 79%
17:00 +17°C° 0 mm 5 mps 749 mmHg 82%
18:00 +16°C° 0 mm 5 mps 748 mmHg 85%
19:00 +15°C° 0 mm 5 mps 748 mmHg 84%
20:00 +15°C° 0 mm 5 mps 748 mmHg 83%
21:00 +15°C° 0 mm 5 mps 748 mmHg 83%
22:00 +14°C° 0 mm 5 mps 748 mmHg 84%
23:00 +14°C° 0 mm 5 mps 748 mmHg 85%

Tomorrow, 23 September, Wednesday

Time Temperature Precipitation Wind Pressure Humidity
00:00 +13°C° 0 mm 5 mps 748 mmHg 86%
01:00 +13°C° 0 mm 4 mps 748 mmHg 85%
02:00 +13°C° 0 mm 4 mps 748 mmHg 84%
03:00 +12°C° 0 mm 4 mps 748 mmHg 83%
04:00 +12°C° 0.1 mm 4 mps 748 mmHg 82%
05:00 +12°C° 0.1 mm 3 mps 748 mmHg 80%
06:00 +11°C° 0.1 mm 3 mps 749 mmHg 79%
07:00 +11°C° 0.1 mm 4 mps 749 mmHg 79%
08:00 +11°C° 0.1 mm 4 mps 749 mmHg 78%
09:00 +10°C° 0.1 mm 5 mps 749 mmHg 78%
10:00 +10°C° 0.2 mm 5 mps 749 mmHg 79%
11:00 +10°C° 0.2 mm 5 mps 749 mmHg 80%
12:00 +10°C° 0.2 mm 6 mps 749 mmHg 81%
13:00 +10°C° 0.1 mm 6 mps 749 mmHg 81%
14:00 +10°C° 0.1 mm 6 mps 749 mmHg 81%
15:00 +10°C° 0.1 mm 5 mps 749 mmHg 80%
16:00 +10°C° 0.1 mm 5 mps 748 mmHg 81%
17:00 +10°C° 0.1 mm 4 mps 748 mmHg 83%
18:00 +10°C° 0.1 mm 4 mps 748 mmHg 84%
19:00 +10°C° 0.4 mm 4 mps 747 mmHg 85%
20:00 +8°C° 0.4 mm 4 mps 747 mmHg 87%
21:00 +8°C° 0.4 mm 4 mps 746 mmHg 88%
22:00 +7°C° 1 mm 4 mps 746 mmHg 88%
23:00 +7°C° 1 mm 4 mps 746 mmHg 89%

Day after tomorrow, 24 September, Thursday

Time Temperature Precipitation Wind Pressure Humidity
00:00 +6°C° 1 mm 4 mps 745 mmHg 89%
01:00 +6°C° 0.2 mm 4 mps 745 mmHg 89%
02:00 +6°C° 0.2 mm 4 mps 745 mmHg 89%
03:00 +6°C° 0.2 mm 4 mps 745 mmHg 89%
04:00 +7°C° 0.1 mm 3 mps 745 mmHg 89%
05:00 +5°C° 0.1 mm 3 mps 745 mmHg 89%
06:00 +6°C° 0.1 mm 2 mps 745 mmHg 90%
07:00 +7°C° 0 mm 2 mps 744 mmHg 86%
08:00 +8°C° 0 mm 2 mps 744 mmHg 82%
09:00 +9°C° 0 mm 2 mps 744 mmHg 78%
10:00 +9°C° 0.5 mm 2 mps 744 mmHg 81%
11:00 +8°C° 0.5 mm 3 mps 744 mmHg 84%
12:00 +8°C° 0.5 mm 3 mps 744 mmHg 87%
13:00 +9°C° 0.2 mm 2 mps 743 mmHg 82%
14:00 +10°C° 0.2 mm 2 mps 743 mmHg 77%
15:00 +12°C° 0.2 mm 1 mps 743 mmHg 72%
16:00 +10°C° 0.2 mm 2 mps 743 mmHg 77%
17:00 +9°C° 0.2 mm 2 mps 744 mmHg 81%
18:00 +8°C° 0.2 mm 3 mps 744 mmHg 86%
19:00 +8°C° 0.1 mm 3 mps 744 mmHg 87%
20:00 +8°C° 0.1 mm 3 mps 745 mmHg 88%
21:00 +7°C° 0.1 mm 3 mps 745 mmHg 89%
22:00 +7°C° 0.6 mm 4 mps 745 mmHg 90%
23:00 +7°C° 0.6 mm 4 mps 746 mmHg 90%

25 September, Friday

Time Temperature Precipitation Wind Pressure Humidity
00:00 +7°C° 0.6 mm 5 mps 746 mmHg 91%
01:00 +7°C° 0.9 mm 6 mps 746 mmHg 89%
02:00 +6°C° 0.9 mm 7 mps 746 mmHg 86%
03:00 +6°C° 0.9 mm 8 mps 747 mmHg 84%
04:00 +6°C° 0.2 mm 8 mps 747 mmHg 84%
05:00 +5°C° 0.2 mm 8 mps 748 mmHg 83%
06:00 +5°C° 0.2 mm 8 mps 748 mmHg 83%
07:00 +6°C° 0.1 mm 9 mps 749 mmHg 80%
08:00 +6°C° 0.1 mm 10 mps 749 mmHg 76%
09:00 +7°C° 0.1 mm 11 mps 750 mmHg 73%
10:00 +7°C° 0.3 mm 11 mps 750 mmHg 73%
11:00 +8°C° 0.3 mm 11 mps 751 mmHg 72%
12:00 +8°C° 0.3 mm 11 mps 751 mmHg 72%
13:00 +8°C° 0.3 mm 11 mps 752 mmHg 71%
14:00 +8°C° 0.3 mm 11 mps 752 mmHg 71%
15:00 +8°C° 0.3 mm 10 mps 753 mmHg 70%
16:00 +7°C° 0 mm 9 mps 753 mmHg 71%
17:00 +7°C° 0 mm 8 mps 754 mmHg 71%
18:00 +6°C° 0 mm 7 mps 755 mmHg 71%
19:00 +6°C° 0.1 mm 7 mps 755 mmHg 74%
20:00 +5°C° 0.1 mm 7 mps 756 mmHg 76%
21:00 +5°C° 0.1 mm 7 mps 756 mmHg 79%
22:00 +4°C° 0 mm 7 mps 757 mmHg 78%
23:00 +4°C° 0 mm 7 mps 757 mmHg 78%

26 September, Saturday

Time Temperature Precipitation Wind Pressure Humidity
00:00 +3°C° 0 mm 7 mps 757 mmHg 77%
01:00 +3°C° 0 mm 7 mps 757 mmHg 79%
02:00 +3°C° 0 mm 7 mps 757 mmHg 81%
03:00 +2°C° 0 mm 6 mps 757 mmHg 82%
04:00 +2°C° 0 mm 6 mps 757 mmHg 84%
05:00 +2°C° 0 mm 6 mps 758 mmHg 87%
06:00 +2°C° 0 mm 5 mps 758 mmHg 89%
07:00 +3°C° 0 mm 6 mps 758 mmHg 83%
08:00 +5°C° 0 mm 6 mps 759 mmHg 78%
09:00 +8°C° 0 mm 6 mps 759 mmHg 72%
10:00 +8°C° 0 mm 6 mps 759 mmHg 69%
11:00 +9°C° 0 mm 7 mps 760 mmHg 67%
12:00 +10°C° 0 mm 7 mps 760 mmHg 64%
13:00 +10°C° 0.1 mm 7 mps 760 mmHg 63%
14:00 +9°C° 0.1 mm 7 mps 760 mmHg 62%
15:00 +9°C° 0.1 mm 7 mps 761 mmHg 62%
16:00 +8°C° 0 mm 6 mps 761 mmHg 65%
17:00 +7°C° 0 mm 6 mps 761 mmHg 68%
18:00 +6°C° 0 mm 5 mps 761 mmHg 71%
19:00 +5°C° 0 mm 5 mps 762 mmHg 72%
20:00 +5°C° 0 mm 5 mps 762 mmHg 73%
21:00 +3°C° 0 mm 5 mps 762 mmHg 74%
22:00 +3°C° 0 mm 5 mps 762 mmHg 75%
23:00 +2°C° 0 mm 5 mps 762 mmHg 75%

27 September, Sunday

Time Temperature Precipitation Wind Pressure Humidity
00:00 +3°C° 0 mm 4 mps 762 mmHg 76%
01:00 +3°C° 0 mm 4 mps 762 mmHg 76%
02:00 +1°C° 0 mm 4 mps 762 mmHg 77%
03:00 +1°C° 0 mm 4 mps 762 mmHg 78%
04:00 +2°C° 0 mm 3 mps 762 mmHg 79%
05:00 +2°C° 0 mm 3 mps 762 mmHg 79%
06:00 +2°C° 0 mm 3 mps 763 mmHg 80%
07:00 +4°C° 0 mm 2 mps 762 mmHg 75%
08:00 +6°C° 0 mm 2 mps 762 mmHg 70%
09:00 +8°C° 0 mm 2 mps 762 mmHg 65%
10:00 +9°C° 0 mm 2 mps 762 mmHg 63%
11:00 +11°C° 0 mm 3 mps 762 mmHg 61%
12:00 +12°C° 0 mm 3 mps 762 mmHg 59%
13:00 +13°C° 0 mm 3 mps 761 mmHg 61%
14:00 +13°C° 0 mm 3 mps 761 mmHg 63%
15:00 +14°C° 0 mm 3 mps 761 mmHg 65%
16:00 +13°C° 0 mm 3 mps 760 mmHg 71%
17:00 +11°C° 0 mm 3 mps 760 mmHg 78%
18:00 +10°C° 0 mm 3 mps 760 mmHg 84%
19:00 +10°C° 0 mm 3 mps 760 mmHg 87%
20:00 +10°C° 0 mm 3 mps 760 mmHg 89%
21:00 +9°C° 0 mm 3 mps 760 mmHg 91%
22:00 +9°C° 0 mm 3 mps 759 mmHg 91%
23:00 +9°C° 0 mm 3 mps 759 mmHg 91%
Show more